Dillon, MT

3:08 PM MDT on May 29, 2017 (GMT -0600)
Dillon

Weather History for KDLN - April, 2014

Change the Weather History Date:

Wednesday, April 23, 2014

  Actual Average Record
Temperature  
Mean Temperature 37 °F 44 °F  
Max Temperature 44 °F 57 °F 78 °F (1949)
Min Temperature 29 °F 30 °F 13 °F (2013)
Degree Days  
Heating Degree Days 28    
Month to date heating degree days 509  
Since 1 July heating degree days 7213  
Cooling Degree Days 0    
Month to date cooling degree days 0  
Year to date cooling degree days 0  
Moisture  
Dew Point 27 °F    
Average Humidity 71    
Maximum Humidity 92    
Minimum Humidity 49    
Precipitation  
Precipitation 0.00 in 0.04 in 0.58 in (1979)
Month to date precipitation 0.04 0.77  
Year to date precipitation 0.61 1.85  
Snow  
Snow 0.00 in - - ()
Snow Depth 1.00 in    
Sea Level Pressure  
Sea Level Pressure 29.77 in    
Wind  
Wind Speed 15 mph (WSW)    
Max Wind Speed 33 mph    
Max Gust Speed 38 mph    
Visibility 6 miles    
Events Fog , Rain , Snow    
T = Trace of Precipitation, MM = Missing Value Source: NWS Daily Summary

Daily Weather History Graph

Daily Weather History Graph

Search for Another Location

Airport or City:

Trip Planner

Search our weather history database for the weather conditions in past years. The results will help you decide how hot, cold, wet, or windy it might be!

Date:

Astronomy

Apr. 23, 2014 Rise Set
Actual Time 6:31 AM MDT 8:26 PM MDT
Civil Twilight 5:59 AM MDT 8:58 PM MDT
Nautical Twilight 5:21 AM MDT 9:37 PM MDT
Astronomical Twilight 4:38 AM MDT 10:19 PM MDT
Moon 3:22 AM MDT (4/23) 2:23 PM MDT (4/23)
Length of Visible Light 14h 58m
Length of Day
13h 55m
Waning Crescent, 34% of the Moon is Illuminated
Apr 23
Waning Crescent
Apr 29
New
May 6
First Quarter
May 14
Full
May 21
Last Quarter

Hourly Weather History & Observations

Time (MDT) Temp. Windchill Dew Point Humidity Pressure Visibility Wind Dir Wind Speed Gust Speed Precip Events Conditions
12:40 AM 37.0 °F 30.4 °F 34.0 °F 89% 29.65 in 10.0 mi South 9.2 mph - N/A   Overcast
12:51 AM 37.4 °F 31.4 °F 33.8 °F 87% 29.65 in 7.0 mi South 8.1 mph - N/A Rain Light Rain
12:53 AM 36.0 °F 31.1 °F 32.0 °F 86% 29.57 in 6.0 mi South 5.8 mph - N/A Rain Light Rain
1:15 AM 34.0 °F 27.2 °F 32.0 °F 92% 29.66 in 2.5 mi SSW 8.1 mph - N/A Snow Light Snow
1:28 AM 33.1 °F 26.1 °F 32.0 °F 96% 29.67 in 1.5 mi West 8.1 mph - N/A Snow Light Snow
1:43 AM 33.1 °F 22.6 °F 32.0 °F 96% 29.68 in 1.0 mi West 16.1 mph - N/A Snow Light Snow
1:50 AM 32.0 °F 22.5 °F 30.2 °F 93% 29.69 in 0.5 mi West 12.7 mph - N/A Fog , Snow Snow
1:51 AM 32.0 °F 23.0 °F 30.9 °F 96% 29.61 in 0.5 mi West 11.5 mph - N/A Fog , Snow Snow
2:10 AM 32.0 °F 23.6 °F 30.9 °F 96% 29.69 in 0.5 mi WNW 10.4 mph - N/A Fog , Snow Snow
2:29 AM 30.9 °F 25.2 °F 30.0 °F 96% 29.70 in 0.8 mi West 5.8 mph - N/A Snow Light Snow
2:34 AM 30.9 °F 24.3 °F 30.0 °F 96% 29.71 in 1.2 mi West 6.9 mph - N/A Snow Light Snow
2:39 AM 30.9 °F 23.5 °F 30.0 °F 96% 29.71 in 2.0 mi WNW 8.1 mph - N/A Snow Light Snow
2:48 AM 30.2 °F 23.4 °F 28.4 °F 93% 29.71 in 2.5 mi WNW 6.9 mph - N/A Snow Light Snow
2:53 AM 30.9 °F 24.3 °F 28.9 °F 92% 29.67 in 2.0 mi WNW 6.9 mph - N/A Snow Light Snow
3:00 AM 30.0 °F 26.5 °F 28.9 °F 96% 29.72 in 1.0 mi WNW 3.5 mph - N/A Snow Light Snow
3:09 AM 30.0 °F 25.2 °F 28.9 °F 96% 29.72 in 0.5 mi West 4.6 mph - N/A Fog , Snow Snow
3:17 AM 30.0 °F 21.1 °F 28.0 °F 92% 29.72 in 0.5 mi NNW 10.4 mph - N/A Fog , Snow Snow
3:37 AM 30.0 °F - 28.9 °F 96% 29.72 in 0.8 mi Calm Calm - N/A Snow Light Snow
3:39 AM 30.0 °F 25.2 °F 28.9 °F 96% 29.72 in 1.0 mi NNE 4.6 mph - N/A Snow Light Snow
3:44 AM 30.0 °F 26.5 °F 28.0 °F 92% 29.72 in 1.8 mi East 3.5 mph - N/A Snow Light Snow
3:47 AM 30.2 °F 24.3 °F 28.4 °F 93% 29.72 in 3.0 mi East 5.8 mph - N/A Snow Light Snow
3:53 AM 30.0 °F 23.2 °F 28.0 °F 92% 29.70 in 5.0 mi ESE 6.9 mph - N/A Snow Light Snow
4:05 AM 30.0 °F 21.1 °F 28.0 °F 92% 29.72 in 5.0 mi ESE 10.4 mph - N/A Snow Light Snow
4:53 AM 28.9 °F 19.8 °F 26.1 °F 89% 29.74 in 10.0 mi SSE 10.4 mph - N/A   Overcast
5:37 AM 30.0 °F 21.1 °F 23.0 °F 75% 29.75 in 10.0 mi West 10.4 mph - N/A   Mostly Cloudy
5:53 AM 30.9 °F 20.2 °F 23.0 °F 72% 29.77 in 10.0 mi West 15.0 mph - N/A   Mostly Cloudy
6:53 AM 30.9 °F 19.1 °F 21.9 °F 69% 29.82 in 10.0 mi West 18.4 mph - N/A   Overcast
7:53 AM 30.0 °F 19.1 °F 19.9 °F 66% 29.88 in 10.0 mi WSW 15.0 mph - N/A   Scattered Clouds
8:53 AM 30.9 °F 19.8 °F 19.9 °F 64% 29.90 in 10.0 mi WSW 16.1 mph - N/A   Mostly Cloudy
9:53 AM 33.1 °F 21.2 °F 19.9 °F 59% 29.88 in 10.0 mi West 20.7 mph 26.5 mph N/A   Clear
10:53 AM 35.1 °F 23.8 °F 19.0 °F 52% 29.88 in 10.0 mi West 20.7 mph - N/A   Scattered Clouds
11:53 AM 37.0 °F 27.7 °F 21.0 °F 52% 29.87 in 10.0 mi WSW 16.1 mph - N/A   Mostly Cloudy
12:53 PM 39.0 °F 29.0 °F 23.0 °F 53% 29.86 in 10.0 mi WSW 20.7 mph 31.1 mph N/A   Mostly Cloudy
1:53 PM 42.1 °F 32.8 °F 26.1 °F 53% 29.84 in 10.0 mi WSW 21.9 mph 31.1 mph N/A   Partly Cloudy
2:53 PM 41.0 °F 30.7 °F 21.9 °F 47% 29.85 in 9.0 mi West 25.3 mph 29.9 mph N/A Rain Light Rain
3:53 PM 42.1 °F 33.9 °F 24.1 °F 49% 29.86 in 10.0 mi WSW 17.3 mph 31.1 mph N/A   Overcast
4:53 PM 41.0 °F 31.6 °F 28.9 °F 62% 29.88 in 10.0 mi West 20.7 mph - N/A   Mostly Cloudy
5:53 PM 44.1 °F 36.8 °F 26.1 °F 49% 29.84 in 10.0 mi West 16.1 mph - N/A   Clear
6:53 PM 43.0 °F 34.5 °F 24.1 °F 47% 29.87 in 10.0 mi WSW 19.6 mph - N/A   Mostly Cloudy
7:53 PM 39.0 °F 34.8 °F 26.1 °F 60% 29.90 in 10.0 mi NNW 5.8 mph - N/A   Clear
8:53 PM 37.9 °F 30.9 °F 26.1 °F 62% 29.90 in 10.0 mi South 10.4 mph - N/A   Mostly Cloudy
9:53 PM 37.0 °F 30.4 °F 26.1 °F 65% 29.92 in 10.0 mi South 9.2 mph - N/A   Mostly Cloudy
10:53 PM 35.1 °F 26.9 °F 23.0 °F 61% 29.93 in 10.0 mi SSW 11.5 mph - N/A   Clear
11:53 PM 37.0 °F 28.5 °F 21.9 °F 54% 29.91 in 10.0 mi SSW 13.8 mph - N/A   Mostly Cloudy